Miscellaneous Local Product
Issued by NWS Hastings, NE

Home | Current Version | Previous Version | Graphics & Text | Print | Product List | Glossary On
Versions: 1 2 3 4 5 6 7 8 9 10 11 12 13 14 15 16 17 18 19 20 21 22 23 24 25 26 27 28 29 30 31 32 33 34 35 36 37 38 39 40 41 42 43 44 45 46 47 48 49 50
502
AXUS43 KGID 021102
MISGRI

GID CWA HOURLY WEATHER ROUNDUP
NATIONAL WEATHER SERVICE HASTINGS NE
600 AM CDT MON MAY 02 2016

NOTE: "FAIR" INDICATES FEW OR NO CLOUDS BELOW 12,000 FEET WITH NO
SIGNIFICANT WEATHER AND/OR OBSTRUCTIONS TO VISIBILITY.

...SOUTH CENTRAL NEBRASKA...

CITY           SKY/WX    TMP DP  RH WIND       PRES   REMARKS
GRAND ISLAND   CLEAR     36  34  92 W8        30.17F WCI  30
HASTINGS       CLOUDY    42  38  85 NW8       30.17S
KEARNEY        CLEAR     36  32  87 NW7       30.18F WCI  30
ORD            CLEAR     30  29  96 CALM      30.16F
YORK           CLOUDY    41  39  93 NW8       30.16S
AURORA         MOCLDY    38  37  97 NW3       30.17S
LEXINGTON      CLEAR     32  31  94 W7        30.19F WCI  26
HOLDREGE       CLEAR     35  33  94 NW5       30.19S WCI  31
HEBRON         CLOUDY    46  43  88 NW6       30.16S

...NEBRASKA PANHANDLE...

CITY           SKY/WX    TMP DP  RH WIND       PRES   REMARKS
CHADRON        CLEAR     31  28  89 SW5       30.21F WCI  26
ALLIANCE       CLEAR     22  20  92 W6        30.20S WCI  14
SCOTTSBLUFF    CLEAR     32  27  81 NW9       30.23S WCI  24
SIDNEY         CLEAR     28  23  81 W12       30.22F WCI  18

...WESTERN AND NORTH CENTRAL NEBRASKA...

CITY           SKY/WX    TMP DP  RH WIND       PRES   REMARKS
VALENTINE      CLEAR     28  25  88 W6        30.18F WCI  22
AINSWORTH      CLEAR     34  31  90 W5        30.17F WCI  30
ONEILL         CLEAR     38  34  86 W7        30.17S WCI  32
BROKEN BOW     CLEAR     34  30  85 NW3       30.18F
IMPERIAL       CLEAR     33  28  81 NW7       30.22F WCI  27
NORTH PLATTE   CLEAR     27  26  96 NW7       30.20F WCI  19
MCCOOK         MOCLDY    33  31  92 W6        30.21F WCI  28

...EASTERN NEBRASKA...

CITY           SKY/WX    TMP DP  RH WIND       PRES   REMARKS
NORFOLK        CLEAR     35  32  88 W5        30.15S WCI  31
SO SIOUX CITY  PTCLDY    37  34  89 NW9       30.14S WCI  30
TEKAMAH        MOCLDY    41  39  93 NW7       30.14S
COLUMBUS       CLEAR     37  28  70 W6        30.16F WCI  33
ALBION         CLEAR     32  30  93 NW5       30.16F WCI  27
OMAHA EPPLEY   CLOUDY    44  41  89 N6        30.13S
OFFUTT AFB     CLOUDY    45  44  95 W6        30.12S
MILLARD        CLOUDY    47  42  84 NW5       30.13S
LINCOLN        CLOUDY    48  41  76 NW7       30.15F
NEBRASKA CITY  CLOUDY    47  45  91 N6        30.12S
BEATRICE       CLOUDY    47  44  89 NW6       30.14S
FALLS CITY     CLOUDY    47  44  90 NW6       30.11F

...NORTHERN KANSAS...

CITY           SKY/WX    TMP DP  RH WIND       PRES   REMARKS
GOODLAND       CLEAR     30  26  85 W8        30.22S WCI  22
HILL CITY      CLOUDY    42  39  89 W3        30.20S
NORTON         SUNNY     36  30  80 W13       30.19S WCI  27
PHILLIPSBURG   PTCLDY    39  39 100 CALM      30.19F
SMITH CENTER   CLOUDY    41  39  93 NW5       30.19S
BELOIT         CLOUDY    45  39  81 W6        30.17S
HAYS           PTCLDY    39  30  70 NW6       30.19S WCI  35
RUSSELL        CLOUDY    44  41  89 NW9       30.17F
CONCORDIA      CLOUDY    46  43  89 W7        30.16S
SALINA         CLOUDY    48  44  86 NW7       30.16F
TOPEKA         CLOUDY    48  43  82 NW7       30.12S



USA.gov is the U.S. government's official web portal to all federal, state and local government web resources and services.